time, Switch, Flow(0), Analog(2)
yyyy/mm/dd HH:MM:SS.fff, True=FILTERED|False=TOTAL, L/min, V
2023/06/23 14:00:03.085, True, 3.979, 0.120470
2023/06/23 14:00:03.589, True, 3.647, 0.120546
2023/06/23 14:00:04.084, True, 2.696, 0.120851
2023/06/23 14:00:04.589, True, 1.990, 0.120851
2023/06/23 14:00:05.092, True, 1.658, 0.118029
2023/06/23 14:00:05.589, True, 1.685, 0.120928
2023/06/23 14:00:06.093, True, 1.658, 0.120165
2023/06/23 14:00:06.597, True, 1.990, 0.121157
2023/06/23 14:00:07.093, True, 1.684, 0.122301
2023/06/23 14:00:07.597, True, 1.658, 0.120928
2023/06/23 14:00:08.101, True, 1.658, 0.119783
2023/06/23 14:00:08.597, True, 2.025, 0.121691
2023/06/23 14:00:09.101, True, 1.655, 0.121767
2023/06/23 14:00:09.597, True, 1.684, 0.120546
2023/06/23 14:00:10.101, True, 1.658, 0.119402
2023/06/23 14:00:10.605, True, 1.658, 0.119478
2023/06/23 14:00:11.109, True, 1.658, 0.120928
2023/06/23 14:00:11.605, True, 1.687, 0.120546
2023/06/23 14:00:12.109, True, 1.659, 0.118563
2023/06/23 14:00:12.605, True, 1.683, 0.120699
2023/06/23 14:00:13.109, True, 1.659, 0.120928
2023/06/23 14:00:13.613, True, 1.326, 0.122530
2023/06/23 14:00:14.109, True, 1.685, 0.119478
2023/06/23 14:00:14.613, True, 1.658, 0.122301
2023/06/23 14:00:15.117, True, 1.658, 0.121614
2023/06/23 14:00:15.613, True, 2.022, 0.121614
2023/06/23 14:00:16.117, True, 1.659, 0.120165
2023/06/23 14:00:16.621, True, 1.657, 0.118715
2023/06/23 14:00:17.117, True, 2.022, 0.120546
2023/06/23 14:00:17.621, True, 1.658, 0.120699
2023/06/23 14:00:18.125, True, 1.658, 0.119097
2023/06/23 14:00:18.621, True, 1.685, 0.119478
2023/06/23 14:00:19.125, True, 1.658, 0.122683
2023/06/23 14:00:19.629, True, 1.658, 0.122072
2023/06/23 14:00:20.125, True, 1.685, 0.119707
2023/06/23 14:00:20.629, True, 1.658, 0.120699
2023/06/23 14:00:21.133, True, 1.658, 0.118639
2023/06/23 14:00:21.629, True, 2.022, 0.120165
2023/06/23 14:00:22.133, True, 1.658, 0.120470
2023/06/23 14:00:22.637, True, 1.658, 0.121462
2023/06/23 14:00:23.133, True, 1.685, 0.119326
2023/06/23 14:00:23.637, True, 1.658, 0.117952
2023/06/23 14:00:24.141, True, 1.658, 0.118029
2023/06/23 14:00:24.637, True, 2.022, 0.120928
2023/06/23 14:00:25.141, True, 1.658, 0.120089
2023/06/23 14:00:25.645, True, 1.658, 0.121614
2023/06/23 14:00:26.141, True, 1.685, 0.122072
2023/06/23 14:00:26.645, True, 1.990, 0.118715
2023/06/23 14:00:27.149, True, 1.658, 0.120317
2023/06/23 14:00:27.645, True, 1.685, 0.120623
2023/06/23 14:00:28.149, True, 1.658, 0.121080
2023/06/23 14:00:28.653, True, 1.658, 0.119783
2023/06/23 14:00:29.149, True, 1.684, 0.121233
2023/06/23 14:00:29.652, True, 1.660, 0.119326
2023/06/23 14:00:30.157, True, 1.656, 0.121080
2023/06/23 14:00:30.653, True, 2.021, 0.120623
2023/06/23 14:00:31.157, True, 1.658, 0.120241
2023/06/23 14:00:31.661, True, 1.658, 0.120394
2023/06/23 14:00:32.157, True, 1.684, 0.120241
2023/06/23 14:00:32.661, True, 1.989, 0.121309
2023/06/23 14:00:33.165, True, 1.658, 0.117418
2023/06/23 14:00:33.661, True, 1.685, 0.119860
2023/06/23 14:00:34.165, True, 1.658, 0.119554
2023/06/23 14:00:34.661, True, 1.685, 0.120470
2023/06/23 14:00:35.165, True, 1.658, 0.120241
2023/06/23 14:00:35.669, True, 1.990, 0.119783
2023/06/23 14:00:36.165, True, 1.685, 0.120317
2023/06/23 14:00:36.668, True, 1.989, 0.121996
2023/06/23 14:00:37.173, True, 1.660, 0.121843
2023/06/23 14:00:37.677, True, 1.655, 0.123369
2023/06/23 14:00:38.173, True, 2.022, 0.122759
2023/06/23 14:00:38.677, True, 1.659, 0.121767
2023/06/23 14:00:39.181, True, 1.657, 0.122148
2023/06/23 14:00:39.677, True, 1.685, 0.123369
2023/06/23 14:00:40.181, True, 1.659, 0.120241
2023/06/23 14:00:40.685, True, 1.657, 0.123598
2023/06/23 14:00:41.181, True, 1.685, 0.124208
2023/06/23 14:00:41.685, True, 1.658, 0.124819
2023/06/23 14:00:42.189, True, 1.990, 0.123598
2023/06/23 14:00:42.693, True, 1.658, 0.125353
2023/06/23 14:00:43.189, True, 1.685, 0.124971
2023/06/23 14:00:43.693, True, 1.993, 0.125429
2023/06/23 14:00:44.197, True, 1.655, 0.122606
2023/06/23 14:00:44.701, True, 1.658, 0.125353
2023/06/23 14:00:45.197, True, 1.685, 0.125963
2023/06/23 14:00:45.701, True, 1.658, 0.124590
2023/06/23 14:00:46.205, True, 1.990, 0.126955
2023/06/23 14:00:46.701, True, 1.685, 0.125811
2023/06/23 14:00:47.205, True, 1.658, 0.127794
2023/06/23 14:00:47.709, True, 1.658, 0.128634
2023/06/23 14:00:48.205, True, 1.685, 0.126192
2023/06/23 14:00:48.709, True, 1.658, 0.127947
2023/06/23 14:00:49.213, True, 1.990, 0.127718
2023/06/23 14:00:49.709, True, 1.685, 0.127337
2023/06/23 14:00:50.213, True, 1.658, 0.127108
2023/06/23 14:00:50.717, True, 1.658, 0.128710
2023/06/23 14:00:51.213, True, 1.350, 0.127489
2023/06/23 14:00:51.717, True, 1.987, 0.127489
2023/06/23 14:00:52.213, True, 1.685, 0.127565
2023/06/23 14:00:52.717, True, 1.658, 0.130388
2023/06/23 14:00:53.221, True, 1.658, 0.130770
2023/06/23 14:00:53.725, True, 1.660, 0.130617
2023/06/23 14:00:54.221, True, 1.682, 0.128939
2023/06/23 14:00:54.725, True, 1.989, 0.130388
2023/06/23 14:00:55.221, True, 1.685, 0.130999
2023/06/23 14:00:55.725, True, 1.658, 0.130312
2023/06/23 14:00:56.229, True, 1.658, 0.131304
2023/06/23 14:00:56.725, True, 1.685, 0.130999
2023/06/23 14:00:57.229, True, 1.990, 0.132830
2023/06/23 14:00:57.733, True, 1.658, 0.131304
2023/06/23 14:00:58.229, True, 1.688, 0.129473
2023/06/23 14:00:58.733, True, 1.654, 0.130541
2023/06/23 14:00:59.229, True, 1.685, 0.131228
2023/06/23 14:00:59.733, True, 1.658, 0.132525
2023/06/23 14:01:00.237, True, 1.989, 0.131075
2023/06/23 14:01:00.733, True, 1.685, 0.130694
2023/06/23 14:01:01.237, True, 1.657, 0.133135
2023/06/23 14:01:01.741, True, 1.658, 0.130465
2023/06/23 14:01:02.237, True, 1.685, 0.131762
2023/06/23 14:01:02.741, True, 1.990, 0.132677
2023/06/23 14:01:03.245, True, 1.657, 0.134585
2023/06/23 14:01:03.741, True, 1.685, 0.130541
2023/06/23 14:01:04.244, True, 1.658, 0.131380
2023/06/23 14:01:04.748, True, 1.658, 0.133135
2023/06/23 14:01:05.253, True, 1.658, 0.132830
2023/06/23 14:01:05.749, True, 1.685, 0.131228
2023/06/23 14:01:06.253, True, 1.658, 0.130465
2023/06/23 14:01:06.756, True, 1.658, 0.132982
2023/06/23 14:01:07.253, True, 1.687, 0.134051
2023/06/23 14:01:07.757, True, 1.988, 0.130694
2023/06/23 14:01:08.260, True, 1.658, 0.131838
2023/06/23 14:01:08.756, True, 1.685, 0.131762
2023/06/23 14:01:09.261, True, 1.658, 0.132906
2023/06/23 14:01:09.765, True, 1.661, 0.131685
2023/06/23 14:01:10.261, True, 2.019, 0.131914
2023/06/23 14:01:10.764, True, 1.658, 0.133593
2023/06/23 14:01:11.269, True, 1.661, 0.133516
2023/06/23 14:01:11.765, True, 1.685, 0.133593
2023/06/23 14:01:12.269, True, 1.986, 0.133822
2023/06/23 14:01:12.773, True, 1.661, 0.133974
2023/06/23 14:01:13.269, True, 1.684, 0.134203
2023/06/23 14:01:13.773, True, 1.655, 0.133364
2023/06/23 14:01:14.276, True, 1.992, 0.133516
2023/06/23 14:01:14.772, True, 1.686, 0.132525
2023/06/23 14:01:15.277, True, 1.656, 0.134356
2023/06/23 14:01:15.781, True, 1.658, 0.133135
2023/06/23 14:01:16.284, True, 1.659, 0.134279
2023/06/23 14:01:16.781, True, 1.684, 0.134661
2023/06/23 14:01:17.285, True, 1.657, 0.134279
2023/06/23 14:01:17.788, True, 1.661, 0.133288
2023/06/23 14:01:18.285, True, 1.683, 0.132982
2023/06/23 14:01:18.789, True, 1.988, 0.132372
2023/06/23 14:01:19.293, True, 1.657, 0.134508
2023/06/23 14:01:19.789, True, 1.685, 0.131838
2023/06/23 14:01:20.293, True, 1.992, 0.133059
2023/06/23 14:01:20.797, True, 1.657, 0.135729
2023/06/23 14:01:21.293, True, 1.685, 0.132219
2023/06/23 14:01:21.797, True, 1.658, 0.133364
2023/06/23 14:01:22.301, True, 1.658, 0.136721
2023/06/23 14:01:22.797, True, 1.685, 0.132296
2023/06/23 14:01:23.301, True, 1.658, 0.132372
2023/06/23 14:01:23.805, True, 1.658, 0.135653
2023/06/23 14:01:24.301, True, 1.687, 0.131456
2023/06/23 14:01:24.805, True, 1.656, 0.131685
2023/06/23 14:01:25.309, True, 1.658, 0.132448
2023/06/23 14:01:25.805, True, 1.685, 0.133745
2023/06/23 14:01:26.309, True, 1.990, 0.132448
2023/06/23 14:01:26.813, True, 1.658, 0.131685
2023/06/23 14:01:27.309, True, 1.687, 0.133211
2023/06/23 14:01:27.813, True, 1.988, 0.134432
2023/06/23 14:01:28.317, True, 1.658, 0.136110
2023/06/23 14:01:28.813, True, 1.685, 0.133593
2023/06/23 14:01:29.317, True, 1.658, 0.131838
2023/06/23 14:01:29.813, True, 1.684, 0.132219
2023/06/23 14:01:30.317, True, 1.990, 0.132677
2023/06/23 14:01:30.821, True, 1.658, 0.133135
2023/06/23 14:01:31.317, True, 1.685, 0.133211
2023/06/23 14:01:31.821, True, 1.659, 0.132677
2023/06/23 14:01:32.325, True, 1.656, 0.132677
2023/06/23 14:01:32.821, True, 2.022, 0.133059
2023/06/23 14:01:33.325, True, 1.658, 0.135424
2023/06/23 14:01:33.829, True, 1.658, 0.130999
2023/06/23 14:01:34.325, True, 2.022, 0.132296
2023/06/23 14:01:34.829, True, 1.658, 0.135042
2023/06/23 14:01:35.333, True, 1.658, 0.134737
2023/06/23 14:01:35.829, True, 1.685, 0.132753
2023/06/23 14:01:36.332, True, 1.989, 0.132525
2023/06/23 14:01:36.836, True, 1.658, 0.135271
2023/06/23 14:01:37.333, True, 1.685, 0.132525
2023/06/23 14:01:37.837, True, 1.659, 0.133898
2023/06/23 14:01:38.333, True, 2.021, 0.133288
2023/06/23 14:01:38.837, True, 1.658, 0.132448
2023/06/23 14:01:39.341, True, 1.990, 0.132982
2023/06/23 14:01:39.837, True, 1.684, 0.132753
2023/06/23 14:01:40.341, True, 1.658, 0.131685
2023/06/23 14:01:40.845, True, 1.658, 0.130541
2023/06/23 14:01:41.341, True, 1.685, 0.132219
2023/06/23 14:01:41.844, True, 1.658, 0.131914
2023/06/23 14:01:42.349, True, 1.658, 0.135195
2023/06/23 14:01:42.845, True, 2.021, 0.132830
2023/06/23 14:01:43.349, True, 1.660, 0.133211
2023/06/23 14:01:43.853, True, 1.656, 0.130999
2023/06/23 14:01:44.349, True, 1.685, 0.131228
2023/06/23 14:01:44.853, True, 1.658, 0.131151
2023/06/23 14:01:45.357, True, 1.658, 0.132067
2023/06/23 14:01:45.853, True, 1.685, 0.132982
2023/06/23 14:01:46.357, True, 1.660, 0.132906
2023/06/23 14:01:46.861, True, 1.656, 0.132830
2023/06/23 14:01:47.357, True, 1.685, 0.133059
2023/06/23 14:01:47.861, True, 1.658, 0.131838
2023/06/23 14:01:48.357, True, 2.022, 0.134432
2023/06/23 14:01:48.861, True, 1.658, 0.132906
2023/06/23 14:01:49.365, True, 1.658, 0.131609
2023/06/23 14:01:49.861, True, 1.684, 0.130388
2023/06/23 14:01:50.365, True, 1.659, 0.134356
2023/06/23 14:01:50.869, True, 1.657, 0.131685
2023/06/23 14:01:51.365, True, 2.022, 0.131762
2023/06/23 14:01:51.869, True, 1.658, 0.131762
2023/06/23 14:01:52.373, True, 1.658, 0.131762
2023/06/23 14:01:52.877, True, 1.658, 0.132830
2023/06/23 14:01:53.373, True, 1.685, 0.131685
2023/06/23 14:01:53.877, True, 1.658, 0.133135
2023/06/23 14:01:54.381, True, 1.658, 0.131456
2023/06/23 14:01:54.877, True, 1.688, 0.130159
2023/06/23 14:01:55.381, True, 1.655, 0.131838
2023/06/23 14:01:55.877, True, 1.685, 0.131380
2023/06/23 14:01:56.381, True, 1.658, 0.134508
2023/06/23 14:01:56.885, True, 1.658, 0.128176
2023/06/23 14:01:57.381, True, 2.022, 0.131533
2023/06/23 14:01:57.885, True, 1.658, 0.133364
2023/06/23 14:01:58.389, True, 1.659, 0.131075
2023/06/23 14:01:58.885, True, 1.684, 0.131991
2023/06/23 14:01:59.389, True, 1.989, 0.133135
2023/06/23 14:01:59.893, True, 1.658, 0.129625
2023/06/23 14:02:00.389, True, 1.687, 0.130388
2023/06/23 14:02:00.893, True, 1.656, 0.131533
2023/06/23 14:02:01.397, True, 1.658, 0.131151
2023/06/23 14:02:01.893, True, 1.684, 0.132067
2023/06/23 14:02:02.397, True, 1.658, 0.131762
2023/06/23 14:02:02.893, True, 1.685, 0.130694
2023/06/23 14:02:03.397, True, 1.658, 0.130465
2023/06/23 14:02:03.901, True, 1.658, 0.133135
2023/06/23 14:02:04.397, True, 1.685, 0.132448
2023/06/23 14:02:04.901, True, 1.660, 0.130465
2023/06/23 14:02:05.405, True, 1.656, 0.133516
2023/06/23 14:02:05.901, True, 1.685, 0.131838
2023/06/23 14:02:06.405, True, 1.658, 0.129549
2023/06/23 14:02:06.909, True, 1.659, 0.130617
2023/06/23 14:02:07.413, True, 1.657, 0.132219
2023/06/23 14:02:07.909, True, 1.685, 0.129625
2023/06/23 14:02:08.413, True, 1.659, 0.130465
2023/06/23 14:02:08.917, True, 1.657, 0.130846
2023/06/23 14:02:09.413, True, 1.686, 0.131075
2023/06/23 14:02:09.917, True, 1.326, 0.131228
2023/06/23 14:02:10.413, True, 1.687, 0.132830
2023/06/23 14:02:10.917, True, 1.985, 0.130083
2023/06/23 14:02:11.421, True, 1.660, 0.129244
2023/06/23 14:02:11.917, True, 1.685, 0.131380
2023/06/23 14:02:12.421, True, 1.656, 0.130388
2023/06/23 14:02:12.925, True, 1.660, 0.131456
2023/06/23 14:02:13.428, True, 1.656, 0.130083
2023/06/23 14:02:13.925, True, 1.687, 0.130694
2023/06/23 14:02:14.428, True, 1.658, 0.131609
2023/06/23 14:02:14.932, True, 1.656, 0.130770
2023/06/23 14:02:15.428, True, 1.685, 0.130541
2023/06/23 14:02:15.933, True, 1.658, 0.130999
2023/06/23 14:02:16.436, True, 1.658, 0.131075
2023/06/23 14:02:16.932, True, 1.685, 0.130999
2023/06/23 14:02:17.437, True, 1.990, 0.130770
2023/06/23 14:02:17.940, True, 1.658, 0.128862
2023/06/23 14:02:18.436, True, 1.685, 0.132906
2023/06/23 14:02:18.940, True, 1.326, 0.130694
2023/06/23 14:02:19.445, True, 1.658, 0.130007
2023/06/23 14:02:19.940, True, 2.022, 0.129931
2023/06/23 14:02:20.445, True, 1.658, 0.130541
2023/06/23 14:02:20.949, True, 1.989, 0.130236
2023/06/23 14:02:21.444, True, 1.685, 0.128939
2023/06/23 14:02:21.949, True, 1.660, 0.130770
2023/06/23 14:02:22.453, True, 1.655, 0.129091
2023/06/23 14:02:22.949, True, 2.022, 0.130007
2023/06/23 14:02:23.453, True, 1.658, 0.130312
2023/06/23 14:02:23.957, True, 1.658, 0.131151
2023/06/23 14:02:24.461, True, 1.658, 0.129015
2023/06/23 14:02:24.957, True, 1.685, 0.130159
2023/06/23 14:02:25.461, True, 1.658, 0.130388
2023/06/23 14:02:25.965, True, 1.990, 0.131991
2023/06/23 14:02:26.461, True, 1.684, 0.129397
2023/06/23 14:02:26.965, True, 1.658, 0.131228
2023/06/23 14:02:27.469, True, 1.658, 0.129778
2023/06/23 14:02:27.964, True, 1.685, 0.130312
2023/06/23 14:02:28.469, True, 1.660, 0.130694
2023/06/23 14:02:28.973, True, 1.656, 0.130922
2023/06/23 14:02:29.469, True, 2.021, 0.130159
2023/06/23 14:02:29.973, True, 1.659, 0.130770
2023/06/23 14:02:30.469, True, 1.684, 0.130083
2023/06/23 14:02:30.973, True, 1.658, 0.129625
2023/06/23 14:02:31.477, True, 1.989, 0.131456
2023/06/23 14:02:31.972, True, 1.685, 0.131533
2023/06/23 14:02:32.477, True, 1.657, 0.129397
2023/06/23 14:02:32.981, True, 1.658, 0.129549
2023/06/23 14:02:33.477, True, 1.685, 0.128862
2023/06/23 14:02:33.981, True, 1.658, 0.127947
2023/06/23 14:02:34.484, True, 1.658, 0.129702
2023/06/23 14:02:34.980, True, 1.348, 0.128862
2023/06/23 14:02:35.485, True, 1.658, 0.130922
2023/06/23 14:02:35.988, True, 1.658, 0.129702
2023/06/23 14:02:36.484, True, 1.348, 0.127108
2023/06/23 14:02:36.989, True, 1.658, 0.131456
2023/06/23 14:02:37.493, True, 1.658, 0.129702
2023/06/23 14:02:37.988, True, 1.684, 0.128557
2023/06/23 14:02:38.493, True, 1.659, 0.132296
2023/06/23 14:02:38.996, True, 1.660, 0.128328
2023/06/23 14:02:39.493, True, 1.681, 0.130999
2023/06/23 14:02:39.997, True, 1.658, 0.127565
2023/06/23 14:02:40.501, True, 1.992, 0.129625
2023/06/23 14:02:40.997, True, 1.683, 0.126116
2023/06/23 14:02:41.501, True, 1.658, 0.130312
2023/06/23 14:02:42.005, True, 1.659, 0.130846
2023/06/23 14:02:42.501, True, 1.684, 0.130999
2023/06/23 14:02:43.005, True, 1.659, 0.128176
2023/06/23 14:02:43.509, True, 1.988, 0.128634
2023/06/23 14:02:44.013, True, 1.659, 0.129244
2023/06/23 14:02:44.508, True, 1.685, 0.129320
2023/06/23 14:02:45.013, True, 1.658, 0.130846
2023/06/23 14:02:45.517, True, 1.658, 0.129320
2023/06/23 14:02:46.013, True, 1.687, 0.130770
2023/06/23 14:02:46.517, True, 1.656, 0.130770
2023/06/23 14:02:47.021, True, 1.657, 0.129473
2023/06/23 14:02:47.517, True, 1.687, 0.130159
2023/06/23 14:02:48.021, True, 1.989, 0.129091
2023/06/23 14:02:48.524, True, 1.657, 0.129625
2023/06/23 14:02:49.021, True, 1.687, 0.129244
2023/06/23 14:02:49.525, True, 1.657, 0.127031
2023/06/23 14:02:50.029, True, 1.659, 0.129015
2023/06/23 14:02:50.525, True, 1.683, 0.129244
2023/06/23 14:02:51.029, True, 1.658, 0.128328
2023/06/23 14:02:51.525, True, 1.687, 0.128481
2023/06/23 14:02:52.029, True, 1.659, 0.128634
2023/06/23 14:02:52.533, True, 1.655, 0.130312
2023/06/23 14:02:53.037, True, 1.658, 0.128252
2023/06/23 14:02:53.533, True, 1.685, 0.127184
2023/06/23 14:02:54.037, True, 1.989, 0.129320
2023/06/23 14:02:54.541, True, 1.658, 0.129168
2023/06/23 14:02:55.037, True, 1.688, 0.128099
2023/06/23 14:02:55.541, True, 1.658, 0.127947
2023/06/23 14:02:56.045, True, 1.655, 0.131456
2023/06/23 14:02:56.541, True, 1.685, 0.127871
2023/06/23 14:02:57.045, True, 1.659, 0.128099
2023/06/23 14:02:57.549, True, 1.657, 0.128634
2023/06/23 14:02:58.045, True, 1.685, 0.128328
2023/06/23 14:02:58.549, True, 1.658, 0.128939
2023/06/23 14:02:59.053, True, 1.658, 0.128099
2023/06/23 14:02:59.549, True, 1.684, 0.128023
2023/06/23 14:03:00.053, True, 1.659, 0.129473
2023/06/23 14:03:00.557, True, 1.657, 0.127108
2023/06/23 14:03:01.053, True, 1.685, 0.128939
2023/06/23 14:03:01.557, True, 1.989, 0.128099
2023/06/23 14:03:02.061, True, 1.658, 0.128405
2023/06/23 14:03:02.557, True, 1.684, 0.126116
2023/06/23 14:03:03.061, True, 1.661, 0.129931
2023/06/23 14:03:03.565, True, 1.987, 0.127642
2023/06/23 14:03:04.061, True, 1.687, 0.129473
2023/06/23 14:03:04.565, True, 1.657, 0.127794
2023/06/23 14:03:05.069, True, 1.657, 0.129397
2023/06/23 14:03:05.565, True, 1.684, 0.129168
2023/06/23 14:03:06.069, True, 1.659, 0.128405
2023/06/23 14:03:06.573, True, 1.657, 0.127565
2023/06/23 14:03:07.068, True, 1.685, 0.126574
2023/06/23 14:03:07.573, True, 1.989, 0.128023
2023/06/23 14:03:08.077, True, 1.658, 0.130236
2023/06/23 14:03:08.573, True, 1.684, 0.128023
2023/06/23 14:03:09.077, True, 1.658, 0.128862
2023/06/23 14:03:09.581, True, 1.658, 0.128176
2023/06/23 14:03:10.077, True, 1.685, 0.127871
2023/06/23 14:03:10.581, True, 1.991, 0.129320
2023/06/23 14:03:11.085, True, 1.656, 0.128481
2023/06/23 14:03:11.581, True, 1.685, 0.126879
2023/06/23 14:03:12.084, True, 1.658, 0.129091
2023/06/23 14:03:12.581, True, 1.348, 0.126879
2023/06/23 14:03:13.085, True, 1.657, 0.125658
2023/06/23 14:03:13.589, True, 1.990, 0.129244
2023/06/23 14:03:14.085, True, 1.687, 0.128634
2023/06/23 14:03:14.589, True, 1.657, 0.129244
2023/06/23 14:03:15.093, True, 1.988, 0.128252
2023/06/23 14:03:15.589, True, 1.685, 0.127108
2023/06/23 14:03:16.093, True, 1.661, 0.130236
2023/06/23 14:03:16.589, True, 1.681, 0.127642
2023/06/23 14:03:17.093, True, 1.658, 0.126955
2023/06/23 14:03:17.597, True, 1.658, 0.128252
2023/06/23 14:03:18.101, True, 1.990, 0.126421
2023/06/23 14:03:18.597, True, 1.685, 0.129091
2023/06/23 14:03:19.101, True, 1.659, 0.128099
2023/06/23 14:03:19.605, True, 1.657, 0.130922
2023/06/23 14:03:20.101, True, 1.685, 0.127184
2023/06/23 14:03:20.605, True, 1.658, 0.127718
2023/06/23 14:03:21.109, True, 1.660, 0.128405
2023/06/23 14:03:21.605, True, 1.683, 0.127871
2023/06/23 14:03:22.109, True, 1.658, 0.127108
2023/06/23 14:03:22.613, True, 1.658, 0.127184
2023/06/23 14:03:23.117, True, 1.990, 0.126268
2023/06/23 14:03:23.613, True, 1.685, 0.128710
2023/06/23 14:03:24.117, True, 1.658, 0.129244
2023/06/23 14:03:24.621, True, 1.658, 0.127794
2023/06/23 14:03:25.125, True, 1.658, 0.127489
2023/06/23 14:03:25.621, True, 1.684, 0.127565
2023/06/23 14:03:26.124, True, 1.661, 0.127565
2023/06/23 14:03:26.621, True, 1.345, 0.126879
2023/06/23 14:03:27.125, True, 1.658, 0.126955
2023/06/23 14:03:27.629, True, 1.658, 0.128023
2023/06/23 14:03:28.125, True, 1.685, 0.128405
2023/06/23 14:03:28.629, True, 1.658, 0.128176
2023/06/23 14:03:29.133, True, 1.658, 0.127718
2023/06/23 14:03:29.629, True, 1.351, 0.126726
2023/06/23 14:03:30.133, True, 1.655, 0.127642
2023/06/23 14:03:30.637, True, 1.990, 0.126192
2023/06/23 14:03:31.133, True, 1.685, 0.128328
2023/06/23 14:03:31.637, True, 1.658, 0.128328
2023/06/23 14:03:32.141, True, 1.661, 0.127947
2023/06/23 14:03:32.637, True, 1.682, 0.128634
2023/06/23 14:03:33.141, True, 1.658, 0.128862
2023/06/23 14:03:33.645, True, 1.658, 0.126421
2023/06/23 14:03:34.141, True, 1.685, 0.126955
2023/06/23 14:03:34.645, True, 1.658, 0.129091
2023/06/23 14:03:35.149, True, 1.658, 0.127947
2023/06/23 14:03:35.645, True, 1.685, 0.128099
2023/06/23 14:03:36.149, True, 1.658, 0.126650
2023/06/23 14:03:36.653, True, 1.658, 0.126192
2023/06/23 14:03:37.149, True, 1.685, 0.127337
2023/06/23 14:03:37.653, True, 1.658, 0.126650
2023/06/23 14:03:38.157, True, 1.658, 0.129778
2023/06/23 14:03:38.653, True, 1.686, 0.126574
2023/06/23 14:03:39.157, True, 1.656, 0.125887
2023/06/23 14:03:39.653, True, 1.685, 0.126574
2023/06/23 14:03:40.157, True, 1.993, 0.127565
2023/06/23 14:03:40.661, True, 1.655, 0.127718
2023/06/23 14:03:41.157, True, 1.684, 0.126192
2023/06/23 14:03:41.661, True, 1.659, 0.124971
2023/06/23 14:03:42.165, True, 1.658, 0.127108
2023/06/23 14:03:42.661, True, 2.021, 0.129244
2023/06/23 14:03:43.165, True, 1.326, 0.125887
2023/06/23 14:03:43.669, True, 1.658, 0.124285
2023/06/23 14:03:44.165, True, 2.022, 0.127184
2023/06/23 14:03:44.669, True, 1.660, 0.127108
2023/06/23 14:03:45.173, True, 1.655, 0.126726
2023/06/23 14:03:45.669, True, 1.685, 0.126955
2023/06/23 14:03:46.173, True, 1.658, 0.126345
2023/06/23 14:03:46.676, True, 1.660, 0.125734
2023/06/23 14:03:47.173, True, 1.686, 0.126268
2023/06/23 14:03:47.677, True, 1.655, 0.125200
2023/06/23 14:03:48.181, True, 1.989, 0.126345
2023/06/23 14:03:48.685, True, 1.658, 0.127947
2023/06/23 14:03:49.181, True, 1.686, 0.125582
2023/06/23 14:03:49.685, True, 1.657, 0.127108
2023/06/23 14:03:50.181, True, 1.685, 0.127184
2023/06/23 14:03:50.685, True, 1.658, 0.128786
2023/06/23 14:03:51.189, True, 1.990, 0.126116
2023/06/23 14:03:51.685, True, 1.685, 0.125124
2023/06/23 14:03:52.189, True, 1.658, 0.128023
2023/06/23 14:03:52.693, True, 1.658, 0.125429
2023/06/23 14:03:53.188, True, 1.685, 0.126726
2023/06/23 14:03:53.693, True, 1.657, 0.123674
2023/06/23 14:03:54.197, True, 1.659, 0.126268
2023/06/23 14:03:54.693, True, 1.684, 0.127337
2023/06/23 14:03:55.197, True, 1.658, 0.126726
2023/06/23 14:03:55.693, True, 1.685, 0.127871
2023/06/23 14:03:56.197, True, 1.658, 0.127642
2023/06/23 14:03:56.701, True, 1.658, 0.125734
2023/06/23 14:03:57.205, True, 1.657, 0.125734
2023/06/23 14:03:57.701, True, 1.685, 0.124971
2023/06/23 14:03:58.205, True, 1.990, 0.126955
2023/06/23 14:03:58.701, True, 1.685, 0.126345
2023/06/23 14:03:59.205, True, 1.658, 0.124666
2023/06/23 14:03:59.709, True, 1.661, 0.125963
2023/06/23 14:04:00.212, True, 1.986, 0.126421
2023/06/23 14:04:00.709, True, 1.685, 0.127794
2023/06/23 14:04:01.213, True, 1.661, 0.124514
2023/06/23 14:04:01.717, True, 1.655, 0.127642
2023/06/23 14:04:02.213, True, 1.685, 0.123293
2023/06/23 14:04:02.717, True, 1.658, 0.124666
2023/06/23 14:04:03.221, True, 1.990, 0.126116
2023/06/23 14:04:03.717, True, 1.685, 0.123980
2023/06/23 14:04:04.221, True, 1.326, 0.126726
2023/06/23 14:04:04.725, True, 1.660, 0.126421
2023/06/23 14:04:05.221, True, 1.683, 0.125887
2023/06/23 14:04:05.725, True, 1.660, 0.126040
2023/06/23 14:04:06.229, True, 1.655, 0.125658
2023/06/23 14:04:06.725, True, 1.685, 0.125811
2023/06/23 14:04:07.229, True, 1.989, 0.126955
2023/06/23 14:04:07.733, True, 1.658, 0.125200
2023/06/23 14:04:08.237, True, 1.658, 0.127031
2023/06/23 14:04:08.733, True, 1.685, 0.126116
2023/06/23 14:04:09.236, True, 1.660, 0.126574
2023/06/23 14:04:09.741, True, 1.657, 0.127489
2023/06/23 14:04:10.237, True, 1.686, 0.126879
2023/06/23 14:04:10.741, True, 1.657, 0.125963
2023/06/23 14:04:11.244, True, 1.990, 0.125200
2023/06/23 14:04:11.741, True, 1.685, 0.125734
2023/06/23 14:04:12.245, True, 1.658, 0.124361